Meteo Giornale » Osservazioni meteo Italia » Pescara

ore: 12:50 - Osservazioni Meteo Pescara
Lat. 42° 26' N Lon. 14° 12' E Alt. 10 metri s.l.m.

poco_nuvoloso Europe/Rome

29 °C

Poco Nuvoloso

Temp. 24 Ore

21 °C

30 °C

Nord

24 Km/h

Dew point 19 °C

Umidità 54 %

Visibilità  10 Km

Il sole sorge alle ore 06:01

Il sole tramonta alle ore 20:15

Data e Ora Cielo e Fenomeni T °C DP °C Um. % Pres. hPa Vis. km Vento km/h
Oggi h: 12:50 poco_nuvoloso Poco Nuvoloso 29 19 54 1015 10 N 24
Oggi h: 12:20 molto_nuvoloso Molto Nuvoloso 28 18 54 1015 10 N 29.6
Oggi h: 10:50 molto_nuvoloso Molto Nuvoloso 29 17 48 1014 10 N 20.3
Oggi h: 10:20 molto_nuvoloso Molto Nuvoloso 28 16 48 1015 10 NO 13
Oggi h: 09:50 molto_nuvoloso Molto Nuvoloso 27 16 50 1015 10 N/NO 9.3
Oggi h: 09:20 molto_nuvoloso Molto Nuvoloso 26 17 57 1015 10 SO 7.4
Oggi h: 08:50 molto_nuvoloso Molto Nuvoloso 26 17 57 1015 10 SO 11.1
Oggi h: 08:20 molto_nuvoloso Molto Nuvoloso 24 17 64 1015 10 SO 14.8
Oggi h: 07:50 molto_nuvoloso Molto Nuvoloso 23 16 64 1015 10 O/SO 11.1
Oggi h: 07:20 sereno Sereno 22 16 68 1015 10 O/SO 9.3
Oggi h: 06:50 sereno Sereno 21 16 73 1015 10 SO 11.1
Oggi h: 06:20 sereno Sereno 21 16 73 1015 10 SO 14.8
Oggi h: 05:50 sereno Sereno 21 16 73 1015 10 O/SO 7.4
Oggi h: 05:20 sereno Sereno 21 16 73 1015 10 SO 9.3
Oggi h: 04:50 sereno Sereno 21 16 73 1015 10 S/SO 9.3
Oggi h: 04:20 sereno Sereno 21 16 73 1015 10 S/SO 9.3
Oggi h: 03:50 sereno Sereno 22 16 68 1015 10 SO 11.1
Oggi h: 03:20 sereno Sereno 23 16 64 1015 10 S/SO 9.3
Oggi h: 02:50 sereno Sereno 22 16 68 1015 10 S/SO 7.4
Oggi h: 02:20 sereno Sereno 24 16 60 1015 10 N 5.5
Oggi h: 01:50 poco_nuvoloso Poco Nuvoloso 24 16 60 1015 10 SO 7.4
Oggi h: 01:20 poco_nuvoloso Poco Nuvoloso 24 15 57 1016 10 SO 7.4
Oggi h: 00:50 poco_nuvoloso Poco Nuvoloso 24 15 57 1016 10 N 5.5
Oggi h: 00:20 sereno Sereno 25 15 53 1016 10 N 3.7
Ieri h: 23:50 sereno Sereno 26 15 50 1015 10 N 5.5
Ieri h: 23:20 sereno Sereno 27 15 47 1015 10 N/NO 9.3
Ieri h: 22:50 sereno Sereno 27 15 47 1015 10 NO 9.3
Ieri h: 22:20 nuvoloso Nuvoloso 28 15 45 1015 10 NO 11.1
Ieri h: 21:50 molto_nuvoloso Molto Nuvoloso 28 15 45 1015 10 NO 13
Ieri h: 21:20 nuvoloso Nuvoloso 28 15 45 1015 10 NO 9.3
Ieri h: 20:50 poco_nuvoloso Poco Nuvoloso 28 15 45 1015 10 NO 9.3
Ieri h: 20:20 poco_nuvoloso Poco Nuvoloso 28 16 48 1015 10 N 5.5
Ieri h: 19:50 poco_nuvoloso Poco Nuvoloso 29 17 48 1015 10 N 11.1
Ieri h: 19:20 sereno Sereno 29 17 48 1015 10 N 14.8
Ieri h: 18:50 sereno Sereno 29 17 48 1015 10 N 22.2
Ieri h: 18:20 sereno Sereno 29 17 48 1015 10 N 18.5
Ieri h: 17:50 sereno Sereno 29 18 51 1015 10 N 22.2
Ieri h: 17:20 sereno Sereno 29 18 51 1015 10 N 22.2
Ieri h: 16:50 sereno Sereno 29 18 51 1015 10 N 22.2
Ieri h: 16:20 sereno Sereno 30 17 45 1015 10 N 22.2
Ieri h: 15:50 sereno Sereno 30 15 40 1015 10 N 24
Ieri h: 15:20 sereno Sereno 29 19 54 1015 10 N 18.5
Ieri h: 14:50 sereno Sereno 29 20 58 1015 10 N/NE 18.5
Ieri h: 14:20 sereno Sereno 29 19 54 1015 10 N 20.3
Ieri h: 13:50 sereno Sereno 29 17 48 1015 10 N/NE 20.3